SCP
1 0 0 0 0 0 0 0 0 0 0 0 0 0 0 0 0 0 0 0 0 0
1 0 0 1 1 0 0 0 0 0 0 0 0 0 0 0 0 0 0 0 0 0
1 1 0 0 0 0 0 0 0 0 0 0 1 0 0 0 0 0 0 0 0 0
1 1 1 1 0 0 0 0 0 0 0 0 0 0 0 0 0 0 0 0 0 0
1 1 1 1 0 0 0 0 0 0 0 0 0 0 0 0 0 0 0 0 0 0
0 1 1 0 0 0 0 0 0 0 0 0 0 0 0 0 0 0 0 0 0 0
1 0 0 0 0 0 0 0 0 0 0 0 0 0 0 0 0 0 0 0 0 0
1 0 0 0 1 1 0 0 0 0 0 0 0 0 0 0 0 0 0 0 0 0
0 0 1 1 0 0 0 0 0 0 0 0 0 0 0 0 0 0 0 0 0 0
0 0 1 1 1 0 0 0 0 0 0 0 0 0 0 0 0 0 0 0 0 0
0 0 0 0 0 0 0 0 0 0 0 0 0 0 0 0 0 0 0 0 0 0
0 0 0 0 0 0 0 0 0 0 0 0 0 0 0 0 0 0 0 0 0 0
0 0 0 0 0 0 0 0 0 0 0 0 0 0 0 0 0 0 0 0 0 0
0 0 0 0 0 0 0 0 0 0 0 0 0 0 0 0 0 0 0 0 0 0
Wind_Speed_500mb
14 4 11 18 15 6 10 11 23 27 21 23 27 30 35 39 39 42 46 50 48 52
20 11 18 19 22 7 12 11 15 16 25 29 32 36 40 45 46 45 47 49 46 43
19 17 15 17 18 20 20 24 26 26 27 32 37 40 41 40 43 39 34 35 41 37
22 17 17 18 20 23 25 26 27 28 33 36 37 38 38 36 30 33 32 30 28 29
29 17 14 22 24 23 24 24 26 27 26 33 35 36 33 31 30 25 31 33 39 43
7 11 9 17 17 17 18 22 23 25 31 29 27 32 38 31 31 23 30 32 36 32
5 8 12 15 17 19 17 24 19 20 18 25 36 33 29 30 31 24 27 28 34 28
9 17 16 12 15 24 22 20 20 15 17 26 28 23 31 32 32 27 24 33 31 27
17 10 17 19 25 25 24 21 8 12 15 22 23 27 33 38 38 30 21 38 36 30
15 20 16 12 16 21 16 14 11 10 9 15 33 33 33 35 38 22 22 41 33 36
13 17 20 20 18 16 15 13 13 10 15 21 29 31 34 36 42 20 32 42 25 34
15 17 18 19 18 17 16 15 12 15 21 22 33 34 43 46 50 45 35 26 32 35
18 13 16 19 17 21 16 14 14 17 25 32 30 32 45 53 55 54 43 30 24 39
20 22 19 22 20 16 14 17 22 22 20 25 24 33 44 50 53 50 45 39 26 30
Wind_Direction_500mb
254 308 319 303 271 319 296 293 296 316 319 310 310 306 304 305 306 300 301 304 307 306
251 243 223 247 280 334 297 298 295 292 297 304 309 309 309 308 309 312 312 312 315 315
247 265 292 292 306 312 301 309 310 306 310 308 307 307 307 316 320 325 333 332 334 331
230 237 272 286 291 291 291 293 300 304 305 308 308 309 313 324 338 332 328 326 320 315
212 239 256 277 279 281 287 293 293 308 306 307 308 304 305 302 303 313 312 309 306 304
193 242 291 287 290 294 285 287 301 299 314 296 288 297 304 308 314 298 308 310 310 324
263 300 279 278 295 299 290 294 307 306 282 277 285 303 311 319 322 313 314 317 315 329
269 280 271 264 287 273 280 279 272 278 276 285 296 325 329 334 337 327 323 310 319 319
283 261 278 285 278 289 279 277 249 268 272 299 297 326 336 336 336 329 330 305 322 307
279 291 258 285 273 273 285 267 262 250 257 292 296 314 328 335 338 330 318 306 310 314
295 281 285 278 269 276 258 263 260 265 279 291 295 312 330 340 346 326 316 310 313 317
286 277 270 268 260 252 263 270 274 280 293 290 299 315 333 339 340 340 316 324 329 311
276 263 253 249 253 254 253 262 262 271 284 288 294 300 320 328 331 333 326 329 327 319
271 278 264 268 254 251 258 265 278 303 340 324 291 290 315 317 326 328 329 331 325 317
Wind_Speed_850mb
14 4 11 18 15 6 10 11 23 27 21 23 27 30 35 39 39 42 46 50 48 52
20 11 18 19 22 7 12 11 15 16 25 29 32 36 40 45 46 45 47 49 46 43
19 17 15 17 18 20 20 24 26 26 27 32 37 40 41 40 43 39 34 35 41 37
22 17 17 18 20 23 25 26 27 28 33 36 37 38 38 36 30 33 32 30 28 29
29 17 14 22 24 23 24 24 26 27 26 33 35 36 33 31 30 25 31 33 39 43
7 11 9 17 17 17 18 22 23 25 31 29 27 32 38 31 31 23 30 32 36 32
5 8 12 15 17 19 17 24 19 20 18 25 36 33 29 30 31 24 27 28 34 28
9 17 16 12 15 24 22 20 20 15 17 26 28 23 31 32 32 27 24 33 31 27
17 10 17 19 25 25 24 21 8 12 15 22 23 27 33 38 38 30 21 38 36 30
15 20 16 12 16 21 16 14 11 10 9 15 33 33 33 35 38 22 22 41 33 36
13 17 20 20 18 16 15 13 13 10 15 21 29 31 34 36 42 20 32 42 25 34
15 17 18 19 18 17 16 15 12 15 21 22 33 34 43 46 50 45 35 26 32 35
18 13 16 19 17 21 16 14 14 17 25 32 30 32 45 53 55 54 43 30 24 39
20 22 19 22 20 16 14 17 22 22 20 25 24 33 44 50 53 50 45 39 26 30
Wind_Direction_850mb
254 308 319 303 271 319 296 293 296 316 319 310 310 306 304 305 306 300 301 304 307 306
251 243 223 247 280 334 297 298 295 292 297 304 309 309 309 308 309 312 312 312 315 315
247 265 292 292 306 312 301 309 310 306 310 308 307 307 307 316 320 325 333 332 334 331
230 237 272 286 291 291 291 293 300 304 305 308 308 309 313 324 338 332 328 326 320 315
212 239 256 277 279 281 287 293 293 308 306 307 308 304 305 302 303 313 312 309 306 304
193 242 291 287 290 294 285 287 301 299 314 296 288 297 304 308 314 298 308 310 310 324
263 300 279 278 295 299 290 294 307 306 282 277 285 303 311 319 322 313 314 317 315 329
269 280 271 264 287 273 280 279 272 278 276 285 296 325 329 334 337 327 323 310 319 319
283 261 278 285 278 289 279 277 249 268 272 299 297 326 336 336 336 329 330 305 322 307
279 291 258 285 273 273 285 267 262 250 257 292 296 314 328 335 338 330 318 306 310 314
295 281 285 278 269 276 258 263 260 265 279 291 295 312 330 340 346 326 316 310 313 317
286 277 270 268 260 252 263 270 274 280 293 290 299 315 333 339 340 340 316 324 329 311
276 263 253 249 253 254 253 262 262 271 284 288 294 300 320 328 331 333 326 329 327 319
271 278 264 268 254 251 258 265 278 303 340 324 291 290 315 317 326 328 329 331 325 317